sat.trackr.live / text

‹ back to catalog

STARLINK-32211

NORAD 60270 · 2024-131R

PAYLOAD ACTIVE UNKNOWN

§ Identity

Operator
Country
US
Launch date
2024-07-27
Launch site
AFETR
Launch vehicle
Mass (kg)
RCS (m²)

Purposes: comms

External: N2YO · Heavens-Above · Gunter

§ Orbital elements

Epoch: 2026-09-21T06:29:28.803264Z

Period
93.85 min
Inclination
53.1567°
Eccentricity
0.0001624
Mean motion
15.34386907 rev/d
Perigee alt
461.6 km
Apogee alt
463.9 km
Semi-major
6,840.9 km
B*
-2.7482e-5
RAAN
221.8165°
Arg perigee
74.9700°
Mean anomaly
285.1482°
Rev number
12,169

§ Raw data

STARLINK-322111 60270U 24131R   26264.27047226 -.00001304  00000+0 -27482-4 0  99922 60270  53.1567 221.8165 0001624  74.9700 285.1482 15.34386907121694

JSON: /api/v1/satellites/60270 · /tle

For live sub-satellite position, see the globe view (requires WebGL).

§ Visibility from observer

Set your observer location to see the next 7 days of passes ≥ 10°. The values pass through the URL so the page stays shareable.

No JS? Fill the form by hand. The geolocation button needs JavaScript.